K2MST Weather Reports


time (UTC)temp
C
wind
direction
speed
KPH
gust
KPH
rain 1hr
cm
rain 24hr
cm
rain mn
cm
humidity
%
barometer
mb
20260508132019 7 293 4.8 8.0 0.00 0.08 0.08 77 1010.4
20260508131039 7 315 6.4 12.9 0.00 0.08 0.08 75 1010.4
20260508130019 7 293 3.2 8.0 0.00 0.08 0.08 76 1010.2
20260508125019 8 315 6.4 11.3 0.00 0.08 0.08 75 1010.1
20260508124018 8 315 3.2 4.8 0.00 0.08 0.08 76 1009.8
20260508123038 7 248 1.6 6.4 0.00 0.08 0.08 78 1009.5
20260508122019 7 248 1.6 4.8 0.00 0.08 0.08 78 1009.5
20260508121018 7 203 3.2 6.4 0.00 0.08 0.08 80 1009.8
20260508120038 7 203 3.2 4.8 0.00 0.08 0.08 80 1009.7
20260508115039 6 225 1.6 4.8 0.00 0.08 0.08 83 1009.7
20260508114018 6 158 3.2 9.7 0.00 0.08 0.08 84 1009.6
20260508113018 5 180 3.2 8.0 0.00 0.08 0.08 86 1009.8
20260508112018 5 180 4.8 9.7 0.00 0.08 0.08 86 1009.9
20260508111018 5 180 4.8 9.7 0.00 0.08 0.08 87 1010.0
20260508110019 5 158 6.4 9.7 0.00 0.08 0.08 88 1010.0
20260508105018 4 180 3.2 6.4 0.00 0.08 0.08 88 1010.1
20260508104018 4 180 3.2 8.0 0.00 0.08 0.08 88 1010.1
20260508103018 3 180 4.8 9.7 0.00 0.08 0.08 89 1009.9
20260508102018 3 158 1.6 6.4 0.00 0.08 0.08 89 1009.9
20260508101018 3 158 3.2 4.8 0.00 0.08 0.08 88 1010.0
20260508100018 3 158 3.2 4.8 0.00 0.08 0.08 88 1010.0
20260508095018 3 158 3.2 6.4 0.00 0.08 0.08 88 1009.8
20260508094018 3 158 3.2 6.4 0.00 0.08 0.08 88 1009.8
20260508093018 3 158 4.8 8.0 0.00 0.08 0.08 88 1009.7
20260508092039 3 180 4.8 8.0 0.00 0.08 0.08 88 1009.7
20260508091018 3 180 4.8 9.7 0.00 0.08 0.08 87 1009.7
20260508090038 3 180 4.8 11.3 0.00 0.08 0.08 87 1009.7
20260508085018 4 180 6.4 11.3 0.00 0.08 0.08 87 1009.6
20260508084138 4 180 4.8 9.7 0.00 0.08 0.08 87 1009.6
20260508083019 4 180 3.2 6.4 0.00 0.08 0.08 86 1009.6
20260508082018 4 158 4.8 11.3 0.00 0.08 0.08 85 1009.5
20260508081018 5 180 4.8 11.3 0.00 0.08 0.08 85 1009.7
20260508080018 5 180 3.2 8.0 0.00 0.08 0.08 85 1009.7
20260508075018 5 180 1.6 6.4 0.03 0.08 0.08 85 1009.8
20260508074017 5 203 1.6 4.8 0.03 0.08 0.08 85 1009.9
20260508073017 5 0.0 3.2 0.03 0.08 0.08 84 1009.9
20260508072017 5 203 1.6 6.4 0.08 0.08 0.08 83 1009.9
20260508071057 5 225 1.6 6.4 0.08 0.08 0.08 82 1009.9
20260508070017 5 0.0 3.2 0.08 0.08 0.08 80 1009.9
20260508065017 5 248 3.2 6.4 0.05 0.05 0.05 80 1010.0
20260508064018 5 293 8.0 19.3 0.05 0.05 0.05 79 1010.0
20260508063037 6 315 8.0 19.3 0.05 0.05 0.05 74 1009.9
20260508062017 7 293 8.0 19.3 0.00 0.00 0.00 71 1009.8
20260508061017 7 315 4.8 12.9 0.00 0.00 0.00 68 1009.6
20260508060017 7 293 8.0 17.7 0.00 0.00 0.00 66 1009.5
20260508055017 7 293 8.0 14.5 0.00 0.00 0.00 63 1009.3
20260508054017 7 293 3.2 6.4 0.00 0.00 0.00 62 1009.3
20260508053038 6 0.0 3.2 0.00 0.00 0.00 67 1009.3
20260508052017 6 0.0 3.2 0.00 0.00 0.00 68 1009.2
20260508051017 6 158 1.6 3.2 0.00 0.00 0.00 68 1009.2
20260508050017 6 0.0 1.6 0.00 0.00 0.00 69 1009.3
20260508045017 6 0.0 1.6 0.00 0.00 0.00 69 1009.3
20260508044037 6 158 1.6 4.8 0.00 0.00 0.00 68 1009.2
20260508043017 6 0.0 3.2 0.00 0.00 0.00 68 1009.3
20260508042019 6 158 3.2 4.8 0.00 0.00 0.00 68 1009.2
20260508041039 6 180 3.2 4.8 0.00 0.00 0.00 68 1009.2
20260508040017 6 158 1.6 4.8 0.00 0.00 0.00 67 1009.2
20260508035017 6 158 1.6 3.2 0.00 0.00 0.00 68 1009.1
20260508034017 6 158 4.8 6.4 0.00 0.00 0.00 68 1009.2
20260508033017 6 158 3.2 6.4 0.00 0.00 0.00 67 1009.1
20260508032017 6 158 1.6 4.8 0.00 0.00 0.00 64 1008.9
20260508031019 6 225 1.6 4.8 0.00 0.00 0.00 61 1008.9
20260508030018 6 225 1.6 4.8 0.00 0.00 0.00 62 1008.9
20260508025019 7 225 1.6 4.8 0.00 0.00 0.00 62 1008.7
20260508024018 7 248 1.6 3.2 0.00 0.00 0.00 59 1008.5
20260508023019 7 225 1.6 1.6 0.00 0.00 0.00 58 1008.5
20260508022018 7 0.0 1.6 0.00 0.00 0.00 57 1008.5
20260508021039 8 0.0 3.2 0.00 0.00 0.00 54 1008.8
20260508020039 8 0.0 1.6 0.00 0.00 0.00 53 1008.8
20260508015018 8 248 1.6 3.2 0.00 0.00 0.00 51 1008.8
20260508014039 9 225 1.6 3.2 0.00 0.00 0.00 49 1008.8
20260508013018 10 0.0 3.2 0.00 0.00 0.00 45 1008.8
20260508012018 10 315 3.2 6.4 0.00 0.00 0.00 43 1008.7
20260508011019 10 315 3.2 8.0 0.00 0.00 0.00 44 1008.7
20260508010018 10 315 3.2 6.4 0.00 0.00 0.00 42 1008.7
20260508005018 10 293 3.2 8.0 0.00 0.00 0.00 43 1008.5
20260508004038 10 293 4.8 8.0 0.00 0.00 0.00 42 1008.4
20260508003018 10 315 4.8 11.3 0.00 0.00 0.00 42 1008.5
20260508002019 10 270 3.2 9.7 0.00 0.00 0.00 42 1008.4
20260508001018 11 293 4.8 11.3 0.00 0.00 0.00 40 1008.2
20260508000038 11 293 4.8 8.0 0.00 0.00 0.00 41 1008.1
20260507235018 11 293 4.8 8.0 0.00 0.00 0.00 41 1008.1
20260507234018 11 293 4.8 11.3 0.00 0.00 0.00 39 1008.1
20260507233018 11 315 4.8 9.7 0.00 0.00 0.00 40 1008.0
20260507232038 11 293 6.4 11.3 0.00 0.00 0.00 41 1008.0
20260507231018 11 338 6.4 14.5 0.00 0.00 0.00 39 1008.0
20260507230018 11 338 8.0 17.7 0.00 0.00 0.00 39 1008.0
20260507225018 12 338 11.3 20.9 0.00 0.00 0.00 38 1008.0
20260507224018 12 23 9.7 19.3 0.00 0.00 0.00 37 1007.9
20260507223017 12 338 9.7 19.3 0.00 0.00 0.00 37 1007.9
20260507222018 12 315 9.7 17.7 0.00 0.00 0.00 37 1007.9
20260507221018 12 338 9.7 22.5 0.00 0.00 0.00 38 1007.8
20260507220018 12 338 9.7 19.3 0.00 0.00 0.00 38 1007.9
20260507215018 12 338 11.3 20.9 0.00 0.00 0.00 37 1008.0
20260507214017 12 338 11.3 19.3 0.00 0.00 0.00 36 1008.0
20260507213038 12 338 12.9 25.7 0.00 0.00 0.00 35 1008.1
20260507212018 12 338 11.3 22.5 0.00 0.00 0.00 38 1008.1
20260507211038 12 315 9.7 20.9 0.00 0.00 0.00 37 1008.1
20260507210017 12 293 11.3 17.7 0.00 0.00 0.00 36 1008.0
20260507205018 12 315 11.3 22.5 0.00 0.00 0.00 36 1008.1
20260507204017 12 338 12.9 24.1 0.00 0.00 0.00 35 1008.0
20260507203058 13 315 11.3 22.5 0.00 0.00 0.00 35 1008.1
20260507202017 13 338 17.7 29.0 0.00 0.00 0.00 34 1008.1
20260507201019 12 338 14.5 29.0 0.00 0.00 0.00 37 1008.1
20260507200017 12 338 16.1 30.6 0.00 0.00 0.00 36 1008.1
20260507195017 12 338 12.9 22.5 0.00 0.00 0.00 37 1008.2
20260507194017 13 338 9.7 22.5 0.00 0.00 0.00 37 1008.3
20260507193017 13 338 12.9 25.7 0.00 0.00 0.00 36 1008.3
20260507192017 12 338 12.9 20.9 0.00 0.00 0.00 38 1008.5
20260507191057 12 338 11.3 24.1 0.00 0.00 0.00 40 1008.7
20260507190017 13 293 11.3 19.3 0.00 0.00 0.00 40 1008.7
20260507185017 13 315 9.7 17.7 0.00 0.00 0.00 41 1008.8
20260507184017 13 293 12.9 32.2 0.00 0.00 0.00 39 1008.9
20260507183017 12 315 6.4 11.3 0.00 0.00 0.00 42 1009.0
20260507182017 12 338 8.0 17.7 0.00 0.00 0.00 43 1009.0
20260507181037 12 23 9.7 19.3 0.00 0.00 0.00 43 1009.1
20260507180037 12 338 11.3 22.5 0.00 0.03 0.00 43 1009.2
20260507175018 13 293 9.7 17.7 0.00 0.03 0.00 41 1009.2
20260507174019 12 293 8.0 16.1 0.00 0.03 0.00 42 1009.4
20260507173019 12 23 3.2 8.0 0.00 0.03 0.00 45 1009.6
20260507172018 12 248 8.0 16.1 0.00 0.03 0.00 45 1009.6
20260507171018 12 293 8.0 16.1 0.00 0.03 0.00 44 1009.5
20260507170019 11 293 8.0 19.3 0.00 0.03 0.00 47 1009.5
20260507165018 11 248 8.0 17.7 0.00 0.03 0.00 48 1009.6
20260507164019 11 23 9.7 19.3 0.00 0.03 0.00 50 1009.8
20260507163019 12 248 8.0 16.1 0.00 0.05 0.00 49 1010.0
20260507162018 11 248 6.4 16.1 0.00 0.05 0.00 49 1010.1
20260507161019 11 293 1.6 8.0 0.00 0.08 0.00 51 1010.3
20260507160019 11 338 8.0 19.3 0.00 0.10 0.00 51 1010.3
20260507155019 10 23 1.6 6.4 0.00 0.15 0.00 52 1010.4
20260507154018 9 338 8.0 16.1 0.00 0.20 0.00 53 1010.7
20260507153039 10 315 6.4 12.9 0.00 0.20 0.00 52 1010.7
20260507152018 9 23 8.0 17.7 0.00 0.23 0.00 53 1010.8
20260507151018 8 23 4.8 9.7 0.00 0.25 0.00 55 1010.8
20260507150018 8 338 8.0 14.5 0.00 0.25 0.00 55 1010.7
20260507145018 8 23 12.9 19.3 0.00 0.25 0.00 54 1010.8
20260507144018 9 338 11.3 20.9 0.00 0.28 0.00 52 1010.9
20260507143018 8 338 9.7 17.7 0.00 0.28 0.00 53 1010.7
20260507142058 8 315 4.8 11.3 0.00 0.30 0.00 56 1010.9
20260507141018 8 315 4.8 11.3 0.00 0.30 0.00 55 1011.0
20260507140018 8 338 9.7 19.3 0.00 0.33 0.00 55 1011.2
20260507135018 8 293 6.4 17.7 0.00 0.33 0.00 54 1011.0
20260507134058 8 338 6.4 17.7 0.00 0.38 0.00 54 1011.0
20260507133018 8 293 4.8 8.0 0.00 0.43 0.00 55 1011.0